TimePST,TemperatureF,Dew PointF,Humidity,Sea Level PressureIn,VisibilityMPH,Wind Direction,Wind SpeedMPH,Gust SpeedMPH,PrecipitationIn,Events,Conditions,WindDirDegrees,DateUTC
12:52 AM,64.0,59.0,84,30.03,3.0,North,3.5,-,N/A,,Partly Cloudy,360,2012-11-04 07:52:00
1:52 AM,63.0,57.9,84,30.03,3.0,NNE,3.5,-,N/A,,Partly Cloudy,30,2012-11-04 08:52:00
1:52 AM,61.0,57.0,87,30.02,3.0,Calm,Calm,-,N/A,,Partly Cloudy,0,2012-11-04 09:52:00
2:52 AM,61.0,55.9,83,30.01,3.0,North,3.5,-,N/A,,Partly Cloudy,350,2012-11-04 10:52:00
3:52 AM,59.0,55.0,87,30.01,3.0,Calm,Calm,-,N/A,,Partly Cloudy,0,2012-11-04 11:52:00
4:52 AM,60.1,55.0,83,30.01,4.0,North,4.6,-,N/A,,Partly Cloudy,350,2012-11-04 12:52:00
5:52 AM,60.1,53.1,78,30.01,10.0,North,3.5,-,N/A,,Partly Cloudy,10,2012-11-04 13:52:00
6:52 AM,61.0,53.1,75,30.04,10.0,North,3.5,-,N/A,,Partly Cloudy,360,2012-11-04 14:52:00
7:52 AM,66.9,51.1,57,30.06,10.0,North,3.5,-,N/A,,Partly Cloudy,350,2012-11-04 15:52:00
8:52 AM,73.9,45.0,35,30.05,10.0,Calm,Calm,-,N/A,,Clear,0,2012-11-04 16:52:00
9:52 AM,80.1,39.0,23,30.05,10.0,Calm,Calm,-,N/A,,Clear,0,2012-11-04 17:52:00
10:52 AM,86.0,35.1,16,30.03,10.0,WNW,3.5,-,N/A,,Clear,300,2012-11-04 18:52:00
11:52 AM,89.1,37.0,16,30.00,10.0,NNW,9.2,-,N/A,,Clear,340,2012-11-04 19:52:00
12:52 PM,84.9,41.0,21,29.98,10.0,NW,10.4,-,N/A,,Clear,320,2012-11-04 20:52:00
1:52 PM,81.0,50.0,34,29.97,10.0,NNW,15.0,-,N/A,,Partly Cloudy,330,2012-11-04 21:52:00
2:52 PM,82.9,45.0,26,29.97,10.0,NNW,12.7,-,N/A,,Partly Cloudy,330,2012-11-04 22:52:00
3:52 PM,84.0,36.0,18,29.97,10.0,NW,11.5,-,N/A,,Partly Cloudy,320,2012-11-04 23:52:00
4:52 PM,81.0,37.0,21,29.98,10.0,NNW,5.8,-,N/A,,Partly Cloudy,330,2012-11-05 00:52:00
5:52 PM,75.0,42.1,31,30.00,10.0,NNW,9.2,-,N/A,,Partly Cloudy,330,2012-11-05 01:52:00
6:52 PM,75.0,41.0,29,30.01,10.0,North,9.2,-,N/A,,Clear,360,2012-11-05 02:52:00
7:52 PM,73.0,37.0,27,30.01,10.0,North,5.8,-,N/A,,Clear,360,2012-11-05 03:52:00
8:52 PM,70.0,39.9,33,30.03,10.0,Calm,Calm,-,N/A,,Clear,0,2012-11-05 04:52:00
9:52 PM,66.9,52.0,59,30.03,8.0,South,3.5,-,N/A,,Clear,190,2012-11-05 05:52:00
10:52 PM,68.0,51.1,55,30.03,10.0,North,3.5,-,N/A,,Clear,10,2012-11-05 06:52:00